Weather History for Ord, NE

Change the Weather History Date:

Wednesday, July 17, 2013

  Actual Average Record
Temperature  
Mean Temperature 76 °F 75 °F  
Max Temperature 89 °F 88 °F 100 °F (2003)
Min Temperature 62 °F 62 °F 53 °F (2014)
Degree Days  
Heating Degree Days 0 0  
Month to date heating degree days 1 0  
Since 1 June heating degree days 48 37  
Since 1 July heating degree days 1 0  
Cooling Degree Days 11 10  
Month to date cooling degree days 175 157  
Year to date cooling degree days 388 360  
Since 1 June cooling degree days 341 319  
Growing Degree Days 24 (Base 50)    
Moisture  
Dew Point 63 °F    
Average Humidity 68    
Maximum Humidity 93    
Minimum Humidity 43    
Precipitation  
Precipitation 0.00 in 0.07 in 1.29 in (1959)
Month to date precipitation 2.17 1.43  
Year to date precipitation 14.24 14.21  
Sea Level Pressure  
Sea Level Pressure 30.22 in    
Wind  
Wind Speed 10 mph (South)    
Max Wind Speed 21 mph    
Max Gust Speed 30 mph    
Visibility 10 miles    
Events      
T = Trace of Precipitation, MM = Missing Value Source: NWS Daily Summary

Daily Weather History Graph

Daily Weather History Graph

Search for Another Location

Airport:

Trip Planner

Search our weather history database for the weather conditions in past years. The results will help you decide how hot, cold, wet, or windy it might be!

Date:

Astronomy

Jul. 17, 2013 Rise Set
Actual Time 6:16 AM CDT 9:06 PM CDT
Civil Twilight 5:43 AM CDT 9:39 PM CDT
Nautical Twilight 5:02 AM CDT 10:20 PM CDT
Astronomical Twilight 4:14 AM CDT 11:08 PM CDT
Moon 3:56 PM CDT (7/17) 1:26 AM CDT (7/17)
Length of Visible Light 15h 55m
Length of Day
14h 50m
Waxing Gibbous, 67% of the Moon is Illuminated
Jul 17
Waxing Gibbous
Jul 22
Full
Jul 29
Last Quarter
Aug 6
New
Aug 14
First Quarter

Hourly Weather History & Observations

Time (CDT) Temp. Heat Index Dew Point Humidity Pressure Visibility Wind Dir Wind Speed Gust Speed Precip Events Conditions
12:53 AM 69.1 °F - 62.1 °F 78% 30.25 in 10.0 mi SW 5.8 mph - N/A   Clear
1:53 AM 66.9 °F - 62.1 °F 84% 30.26 in 10.0 mi SSW 5.8 mph - N/A   Partly Cloudy
2:53 AM 66.9 °F - 62.1 °F 84% 30.25 in 10.0 mi SSE 3.5 mph - N/A   Clear
3:53 AM 66.0 °F - 62.1 °F 87% 30.25 in 10.0 mi South 3.5 mph - N/A   Clear
4:53 AM 63.0 °F - 61.0 °F 93% 30.26 in 10.0 mi Calm Calm - N/A   Clear
5:53 AM 62.1 °F - 60.1 °F 93% 30.26 in 10.0 mi SSW 3.5 mph - N/A   Clear
6:53 AM 64.9 °F - 61.0 °F 87% 30.27 in 10.0 mi South 4.6 mph - N/A   Clear
7:53 AM 69.1 °F - 63.0 °F 81% 30.27 in 10.0 mi South 4.6 mph - N/A   Clear
8:53 AM 73.0 °F - 63.0 °F 71% 30.27 in 10.0 mi South 10.4 mph - N/A   Clear
9:53 AM 77.0 °F - 63.0 °F 62% 30.28 in 10.0 mi South 11.5 mph - N/A   Clear
10:53 AM 80.1 °F 81.5 °F 63.0 °F 56% 30.26 in 10.0 mi South 11.5 mph - N/A   Clear
11:53 AM 82.9 °F 84.0 °F 63.0 °F 51% 30.26 in 10.0 mi South 15.0 mph - N/A   Clear
12:53 PM 84.0 °F 85.4 °F 64.0 °F 51% 30.25 in 10.0 mi SSW 12.7 mph 23.0 mph N/A   Partly Cloudy
1:53 PM 86.0 °F 87.3 °F 64.0 °F 48% 30.23 in 10.0 mi South 17.3 mph - N/A   Clear
2:53 PM 87.1 °F 87.8 °F 63.0 °F 44% 30.21 in 10.0 mi South 19.6 mph 25.3 mph N/A   Partly Cloudy
3:53 PM 86.0 °F 86.8 °F 63.0 °F 46% 30.20 in 10.0 mi South 16.1 mph - N/A   Partly Cloudy
4:53 PM 87.1 °F 88.3 °F 64.0 °F 46% 30.18 in 10.0 mi South 11.5 mph 23.0 mph N/A   Partly Cloudy
5:53 PM 86.0 °F 87.3 °F 64.0 °F 48% 30.16 in 10.0 mi South 15.0 mph 19.6 mph N/A   Mostly Cloudy
6:53 PM 87.1 °F 87.8 °F 63.0 °F 44% 30.14 in 10.0 mi South 13.8 mph 24.2 mph N/A   Partly Cloudy
7:53 PM 84.9 °F 85.9 °F 63.0 °F 48% 30.13 in 10.0 mi South 15.0 mph 24.2 mph N/A   Clear
8:53 PM 82.0 °F 83.1 °F 63.0 °F 52% 30.13 in 10.0 mi SSE 11.5 mph - N/A   Clear
9:53 PM 79.0 °F - 64.0 °F 60% 30.13 in 10.0 mi SSE 8.1 mph - N/A   Clear
10:53 PM 77.0 °F - 64.0 °F 64% 30.14 in 10.0 mi SSE 9.2 mph - N/A   Clear
11:53 PM 75.9 °F - 64.0 °F 67% 30.12 in 10.0 mi SSE 8.1 mph - N/A   Clear